Massena, NY

9:45 PM EDT on September 23, 2017 (GMT -0400)
Massena International-Richards

Weather History for KMSS - June, 2013

Change the Weather History Date:

Friday, June 21, 2013

  Actual Average Record
Temperature  
Mean Temperature 68 °F 66 °F  
Max Temperature 81 °F 77 °F 95 °F (1953)
Min Temperature 55 °F 55 °F 43 °F (1969)
Degree Days  
Heating Degree Days 0 2  
Month to date heating degree days 81  
Since 1 June heating degree days 81  
Since 1 July heating degree days 8182  
Cooling Degree Days 3 3  
Month to date cooling degree days 24 41  
Year to date cooling degree days 47 55  
Since 1 June cooling degree days 24 41  
Growing Degree Days 18 (Base 50)    
Moisture  
Dew Point 53 °F    
Average Humidity 63    
Maximum Humidity 84    
Minimum Humidity 42    
Precipitation  
Precipitation 0.00 in 0.12 in 1.63 in (1972)
Month to date precipitation 5.64 2.46  
Year to date precipitation 13.94 14.39  
Sea Level Pressure  
Sea Level Pressure 30.22 in    
Wind  
Wind Speed 5 mph (SW)    
Max Wind Speed 14 mph    
Max Gust Speed 17 mph    
Visibility 10 miles    
Events      
T = Trace of Precipitation, MM = Missing Value Source: NWS Daily Summary

Daily Weather History Graph

Daily Weather History Graph

Search for Another Location

Airport or City:

Trip Planner

Search our weather history database for the weather conditions in past years. The results will help you decide how hot, cold, wet, or windy it might be!

Date:

Astronomy

Jun. 21, 2013 Rise Set
Actual Time 5:12 AM EDT 8:49 PM EDT
Civil Twilight 4:35 AM EDT 9:26 PM EDT
Nautical Twilight 3:45 AM EDT 10:16 PM EDT
Astronomical Twilight 2:40 AM EDT 11:22 PM EDT
Moon 6:54 PM EDT (6/21) 3:30 AM EDT (6/21)
Length of Visible Light 16h 51m
Length of Day
15h 36m
Waxing Gibbous, 95% of the Moon is Illuminated
Jun 21
Waxing Gibbous
Jun 23
Full
Jun 30
Last Quarter
Jul 8
New
Jul 15
First Quarter

Hourly Weather History & Observations

Time (EDT) Temp. Heat Index Dew Point Humidity Pressure Visibility Wind Dir Wind Speed Gust Speed Precip Events Conditions
12:53 AM 59.0 °F - 46.9 °F 64% 30.21 in 10.0 mi SW 3.5 mph - N/A   Overcast
1:53 AM 59.0 °F - 48.0 °F 67% 30.21 in 10.0 mi Calm Calm - N/A   Overcast
2:53 AM 55.0 °F - 45.0 °F 69% 30.21 in 10.0 mi SSW 3.5 mph - N/A   Clear
3:53 AM 55.9 °F - 45.0 °F 67% 30.22 in 10.0 mi SW 3.5 mph - N/A   Partly Cloudy
4:53 AM 57.9 °F - 44.1 °F 60% 30.23 in 10.0 mi SW 5.8 mph - N/A   Clear
5:53 AM 57.9 °F - 45.0 °F 62% 30.23 in 10.0 mi SW 8.1 mph - N/A   Partly Cloudy
6:53 AM 59.0 °F - 45.0 °F 60% 30.24 in 10.0 mi SW 6.9 mph - N/A   Clear
7:53 AM 63.0 °F - 46.0 °F 54% 30.23 in 10.0 mi SSW 10.4 mph - N/A   Clear
8:53 AM 66.9 °F - 48.9 °F 52% 30.26 in 10.0 mi Variable 6.9 mph - N/A   Clear
9:53 AM 70.0 °F - 51.1 °F 51% 30.26 in 10.0 mi SW 8.1 mph - N/A   Clear
10:53 AM 73.0 °F - 54.0 °F 51% 30.26 in 10.0 mi WSW 5.8 mph - N/A   Clear
11:53 AM 75.9 °F - 54.0 °F 46% 30.25 in 10.0 mi WSW 5.8 mph - N/A   Clear
12:53 PM 78.1 °F - 57.0 °F 48% 30.23 in 10.0 mi SW 9.2 mph - N/A   Clear
1:53 PM 79.0 °F - 57.0 °F 47% 30.23 in 10.0 mi SW 10.4 mph - N/A   Clear
2:53 PM 78.1 °F - 57.0 °F 48% 30.23 in 10.0 mi WSW 6.9 mph - N/A   Scattered Clouds
3:53 PM 80.1 °F 80.4 °F 57.0 °F 45% 30.21 in 10.0 mi Variable 3.5 mph - N/A   Clear
4:53 PM 80.1 °F 80.2 °F 55.9 °F 43% 30.21 in 10.0 mi SW 8.1 mph - N/A   Clear
5:53 PM 75.9 °F - 57.0 °F 52% 30.21 in 10.0 mi SW 6.9 mph - N/A   Clear
6:53 PM 75.0 °F - 60.1 °F 60% 30.20 in 10.0 mi SSW 4.6 mph - N/A   Clear
7:53 PM 72.0 °F - 59.0 °F 64% 30.20 in 10.0 mi SSW 4.6 mph - N/A   Clear
8:53 PM 66.9 °F - 59.0 °F 76% 30.19 in 10.0 mi Calm Calm - N/A   Clear
9:53 PM 64.0 °F - 59.0 °F 84% 30.20 in 10.0 mi WSW 3.5 mph - N/A   Clear
10:53 PM 63.0 °F - 57.0 °F 81% 30.19 in 10.0 mi Calm Calm - N/A   Partly Cloudy
11:53 PM 62.1 °F - 57.0 °F 84% 30.19 in 10.0 mi Calm Calm - N/A   Partly Cloudy